SCP
0 0 0 0 0 0 0 0 0 0 0 0 0 0 0 0 0 0 0 0 0 0 0 0 0 0 1 2 2 2 2 2 2 2 1 0 0 0 1 2 2 2 2 2
0 0 0 0 0 0 0 0 0 0 0 0 0 0 0 0 0 0 0 0 0 0 0 0 0 0 1 1 2 2 2 2 2 2 1 0 0 0 1 2 2 2 2 2
0 0 0 0 0 0 0 0 0 0 0 0 0 0 0 0 0 0 0 0 0 0 0 0 0 0 0 1 1 1 2 2 2 2 1 0 0 0 1 2 3 3 2 2
0 0 0 0 0 0 0 0 0 0 0 0 0 0 0 0 0 0 0 0 0 0 0 0 0 0 0 1 1 1 1 2 2 2 1 1 0 0 0 1 2 3 3 2
0 0 0 0 0 0 0 0 0 0 0 0 0 0 0 0 0 0 0 0 0 0 0 0 0 0 0 0 1 1 1 1 1 1 1 1 0 0 0 1 2 3 3 3
0 0 0 0 0 0 0 0 0 0 0 0 0 0 0 0 0 0 0 0 0 0 0 0 0 0 0 0 1 1 1 1 1 1 1 1 1 0 0 0 1 2 3 3
0 0 0 0 0 0 0 0 0 0 0 0 0 0 0 0 0 0 0 0 0 0 0 0 0 0 0 0 0 1 1 1 1 1 1 1 1 1 1 0 1 2 3 3
0 0 0 0 0 0 0 0 0 0 0 0 0 0 0 0 0 0 0 0 0 0 0 0 0 0 0 0 0 0 1 1 1 1 1 1 1 1 1 1 1 1 2 3
0 0 0 0 0 0 0 0 0 0 0 0 0 0 0 0 0 0 0 0 0 0 0 0 0 0 0 0 0 0 0 0 0 0 0 0 0 1 1 1 1 1 2 3
0 0 0 0 0 0 0 0 0 0 0 0 0 0 0 0 0 0 0 0 0 0 0 0 0 0 0 0 0 0 0 0 0 0 0 0 0 0 1 1 1 1 2 3
0 0 0 0 0 0 0 0 0 0 0 0 0 0 0 0 0 0 0 0 0 0 0 0 0 0 0 0 0 0 0 0 0 0 0 0 0 0 0 1 1 2 2 3
0 0 0 0 0 0 0 0 0 0 0 0 0 0 0 0 0 0 0 0 0 0 0 0 0 0 0 0 0 0 0 0 0 0 0 0 0 0 0 1 1 2 3 3
0 0 0 0 0 0 0 0 0 0 0 0 0 0 0 0 0 0 0 0 0 0 0 0 0 0 0 0 0 0 0 0 0 0 0 0 0 0 0 1 1 2 3 3
0 0 0 0 0 0 0 0 0 0 0 0 0 0 0 0 0 0 0 0 0 0 0 0 0 0 0 0 0 0 0 0 0 0 0 0 0 0 1 1 2 2 3 3
0 0 0 0 0 0 0 0 0 0 0 0 0 0 0 0 0 0 0 0 0 0 0 0 0 0 0 0 0 0 0 0 0 0 0 0 0 0 1 1 1 1 2 1
0 0 0 0 0 0 0 0 0 0 0 0 0 0 0 0 0 0 0 0 0 0 0 0 0 0 0 0 0 0 0 0 0 0 0 0 0 0 0 1 1 1 1 1
0 0 0 0 0 0 0 0 0 0 0 0 0 0 0 0 0 0 0 0 0 0 0 0 0 0 0 0 0 0 0 0 0 0 0 0 1 1 1 1 1 1 1 1
0 0 0 0 0 0 0 0 0 0 0 0 0 0 0 0 0 0 0 0 0 0 0 0 0 0 0 0 0 0 0 0 0 0 0 0 1 1 1 1 1 1 1 1
0 0 0 0 0 0 0 0 0 0 0 0 0 0 0 0 0 0 0 0 0 0 0 0 0 0 0 0 0 0 0 0 0 0 0 0 0 1 1 1 1 1 1 1
0 0 0 0 0 0 0 0 0 0 0 0 0 0 0 0 0 0 0 0 0 0 0 0 0 0 0 0 0 0 0 0 0 0 0 0 0 0 1 1 1 1 0 0
0 0 0 0 0 0 0 0 0 0 0 0 0 0 0 0 0 0 0 0 0 0 0 0 0 0 0 0 0 0 0 0 0 0 0 0 0 0 0 1 1 0 0 0
0 0 0 0 0 0 0 0 0 0 0 0 0 0 0 0 0 0 0 0 0 0 0 0 0 0 0 0 0 0 0 0 0 0 0 0 0 0 0 0 0 0 0 0
0 0 0 0 0 0 0 0 0 0 0 0 0 0 0 0 0 0 0 0 0 0 0 0 0 0 0 0 0 0 0 0 0 0 0 0 0 0 0 0 0 0 0 0
0 0 0 0 0 0 0 0 0 0 0 0 0 0 0 0 0 0 0 0 0 0 0 0 0 0 0 0 0 0 0 0 0 0 0 0 0 0 0 0 0 0 0 0
0 0 0 0 0 0 0 0 0 0 0 0 0 0 0 0 0 0 0 0 0 0 0 0 0 0 0 0 0 0 0 0 0 0 0 0 0 0 0 0 0 0 0 0
0 0 0 0 0 0 0 0 0 0 0 0 0 0 0 0 0 0 0 0 0 0 0 0 0 0 0 0 0 0 0 0 0 0 0 0 0 0 0 0 0 0 0 0
Wind_Speed
2 3 4 4 6 5 5 7 9 7 4 6 10 13 11 8 8 8 7 6 6 5 4 3 2 2 1 1 2 2 3 3 3 2 2 2 2 2 2 2 2 3 3 3
4 5 4 3 4 5 6 8 8 6 3 6 10 14 12 8 8 8 8 7 6 5 4 3 3 2 2 2 2 2 3 3 3 2 2 1 1 2 2 2 2 3 3 3
5 1 1 4 4 5 7 8 8 7 5 6 9 11 9 6 6 7 7 7 6 6 6 5 4 3 2 2 2 2 3 3 3 3 2 2 2 2 2 3 2 3 3 3
3 2 3 4 4 5 6 4 6 6 6 4 4 8 6 5 6 6 6 6 6 6 5 5 4 4 3 2 2 2 3 3 3 3 3 3 3 3 3 2 2 3 4 4
2 2 3 5 4 4 3 2 4 5 5 6 5 7 7 3 6 5 5 5 5 5 5 4 4 4 3 2 2 2 2 3 3 3 3 4 3 3 2 2 3 3 3 3
2 1 2 2 1 2 2 2 2 3 4 7 6 7 7 3 5 4 3 3 3 4 4 4 3 3 3 2 2 2 3 3 3 3 3 4 4 3 3 3 3 3 2 3
2 3 1 2 2 2 2 2 2 3 4 5 2 7 8 2 3 5 4 3 2 3 3 3 3 3 3 2 2 2 3 3 3 4 4 4 4 4 4 4 3 3 3 2
3 4 3 2 3 3 4 3 3 4 4 3 4 8 5 2 3 4 4 4 3 3 3 3 3 3 3 2 2 2 3 3 3 3 3 3 4 3 3 4 4 4 3 3
4 3 1 1 1 3 4 4 1 2 3 6 6 6 6 2 3 2 3 2 3 2 2 2 2 2 2 2 3 3 3 3 3 3 3 3 3 4 3 4 4 3 3 3
3 4 2 1 2 1 2 2 3 4 4 6 6 6 4 2 2 2 2 2 2 2 1 2 1 2 2 2 2 2 3 3 3 3 3 2 3 3 3 3 4 3 3 3
3 3 2 3 6 5 5 4 4 3 4 5 6 4 1 3 2 3 2 2 2 2 2 2 2 2 2 2 2 2 2 2 2 3 3 3 3 3 3 4 4 4 3 3
3 3 4 4 1 2 5 5 6 5 5 6 7 7 1 3 2 2 3 3 3 2 2 2 2 3 2 3 2 2 2 2 2 2 3 3 3 3 4 4 4 4 4 4
4 3 3 3 4 4 5 5 5 3 3 6 8 7 2 2 3 3 4 4 3 3 3 3 3 3 3 3 3 3 3 3 3 2 3 3 3 4 4 4 4 4 4 4
3 5 7 8 4 3 6 7 8 7 7 9 12 12 9 7 7 6 5 5 4 3 3 4 4 4 3 3 3 3 3 3 3 3 3 4 4 4 4 4 3 4 4 4
3 5 7 10 8 7 9 11 12 14 14 12 13 13 14 11 9 8 7 6 5 5 5 5 5 4 3 3 3 3 3 3 3 4 4 4 4 4 4 4 3 3 3 3
2 4 4 7 7 8 12 15 15 16 16 18 17 18 13 9 7 7 7 7 7 7 6 5 5 4 4 3 3 3 3 3 3 4 4 4 4 4 4 4 3 3 3 3
4 3 4 6 4 7 12 12 14 12 13 13 16 14 8 8 8 8 7 7 7 7 6 6 5 5 4 4 4 4 3 3 3 3 3 3 3 4 4 3 3 3 3 3
5 4 3 5 4 11 4 1 7 11 11 13 13 11 9 9 8 7 7 7 7 7 6 6 5 4 4 4 3 3 3 3 3 3 3 3 3 4 3 3 3 3 3 3
6 5 4 4 7 11 7 4 4 7 9 9 11 10 8 6 7 6 4 5 6 6 6 5 4 4 3 4 3 3 3 3 3 4 4 3 3 3 3 3 3 3 3 3
3 4 5 5 7 9 4 1 2 4 7 3 6 6 5 4 6 4 2 4 5 5 4 3 3 3 4 3 3 3 3 3 4 4 4 3 3 3 4 4 3 3 3 3
4 5 7 8 9 10 3 2 3 5 3 1 3 4 5 6 6 5 4 4 4 4 3 3 3 3 3 3 3 3 3 4 4 3 3 3 3 3 3 3 2 2 2 3
7 7 8 7 9 9 4 5 6 4 3 4 5 5 6 7 6 6 5 5 4 4 3 3 3 3 3 3 3 3 4 3 3 2 2 2 2 2 2 2 2 2 3 2
8 7 5 8 8 3 4 6 5 4 5 6 6 6 6 7 7 6 6 5 4 4 4 3 3 3 3 3 3 3 3 2 2 2 2 2 2 2 2 2 2 2 2 2
6 4 6 8 11 9 8 8 7 7 7 7 7 6 6 7 6 6 5 5 5 4 3 3 3 3 3 2 2 3 2 2 2 2 2 1 1 1 1 1 2 2 2 2
6 6 7 10 10 8 8 8 8 7 6 6 6 6 6 6 6 5 5 5 4 4 3 3 3 4 4 2 2 2 2 2 2 2 1 1 1 1 1 1 1 2 2 2
8 10 9 8 6 6 6 5 6 7 7 7 6 6 6 6 6 5 5 4 4 4 3 3 4 4 3 2 2 2 2 2 2 2 2 1 1 1 1 1 1 1 2 2
Wind_Direction
159 194 213 223 228 253 257 255 261 269 282 267 260 267 267 260 246 244 244 241 231 229 226 213 206 192 178 195 198 192 186 191 190 185 196 199 197 200 213 221 226 228 231 231
181 221 240 239 223 230 242 256 268 277 278 270 275 273 266 251 240 245 246 238 231 227 214 207 203 199 193 199 209 209 202 201 198 204 212 224 222 226 222 229 233 237 236 233
215 233 201 200 208 230 242 250 266 278 296 255 278 269 241 227 237 242 241 239 233 224 218 208 201 201 201 206 215 222 220 211 202 200 194 190 198 217 219 222 229 238 239 234
237 240 215 214 225 239 252 259 264 270 273 266 268 280 256 233 239 237 236 234 236 231 222 214 209 210 217 225 219 223 225 212 205 203 204 204 217 226 233 233 232 236 235 237
223 218 227 235 242 235 264 306 266 259 257 268 235 256 265 228 244 243 240 238 238 236 227 220 216 216 224 226 219 215 225 215 210 210 211 217 228 235 234 233 232 236 233 235
258 233 266 266 270 217 225 231 222 234 242 252 236 241 267 226 240 246 251 251 241 235 230 225 220 218 222 225 216 213 219 224 213 212 215 219 229 235 237 241 242 245 242 237
242 195 187 210 201 166 213 233 245 227 223 244 172 237 258 275 259 257 263 275 268 237 227 220 220 221 227 229 230 224 225 228 220 216 221 226 235 239 242 248 248 253 253 253
255 240 184 201 227 215 206 229 240 265 267 273 200 240 258 290 282 269 257 262 260 243 230 225 227 230 232 233 235 231 235 236 235 228 230 232 234 240 246 248 250 249 252 256
239 248 111 237 260 211 188 202 276 269 282 271 249 257 269 227 260 259 238 235 238 236 232 230 231 240 244 242 237 234 231 235 234 230 236 239 241 241 247 250 251 251 254 254
229 259 237 214 181 160 267 163 177 213 254 263 260 255 256 230 237 256 256 249 246 240 238 241 250 259 259 261 258 242 231 232 229 225 229 237 242 242 246 247 246 250 254 254
214 232 232 199 211 201 172 184 210 220 256 266 274 261 220 241 235 249 261 296 296 267 255 265 278 276 266 263 263 252 230 229 229 230 232 236 244 246 247 245 242 243 246 248
197 233 250 237 223 266 225 215 199 225 233 241 268 273 143 239 261 272 280 300 305 296 291 285 279 276 270 261 256 255 241 233 238 239 242 242 248 247 242 244 244 243 242 243
165 199 253 220 190 192 222 219 216 229 240 234 246 260 124 239 275 275 271 282 297 290 283 276 275 275 273 267 257 256 256 246 246 243 242 241 247 247 245 243 244 243 241 240
189 213 235 259 285 201 230 223 211 211 230 242 243 262 272 272 274 277 274 279 284 278 266 265 272 278 279 272 261 259 263 257 250 243 243 244 248 250 245 244 244 244 242 240
202 238 246 265 273 257 251 242 226 226 235 246 257 261 269 272 275 275 271 271 267 263 259 260 268 278 283 281 273 265 267 267 260 252 248 250 253 251 245 242 241 243 242 242
213 248 265 269 261 260 264 252 238 238 242 247 260 269 270 274 272 267 266 265 266 266 266 263 264 271 275 274 272 268 270 272 265 256 255 258 257 250 242 239 238 240 239 240
199 208 250 265 281 277 260 241 226 228 231 235 246 258 274 275 273 271 266 259 260 263 268 263 260 262 267 267 266 265 269 272 262 262 262 263 261 252 248 241 234 235 239 240
196 208 243 272 271 251 260 232 226 235 245 239 252 266 272 277 285 277 263 253 259 262 262 261 260 266 269 267 269 272 270 269 262 260 265 261 257 253 251 244 239 240 240 239
214 205 226 242 258 271 273 233 219 233 263 241 244 260 274 290 285 267 250 253 260 265 266 261 260 264 263 264 268 264 266 265 260 258 259 259 255 249 246 244 246 245 241 242
193 210 225 229 249 258 275 209 224 240 265 226 236 257 268 270 270 279 294 280 276 274 263 257 262 260 258 261 258 253 263 265 261 263 265 263 255 245 243 244 246 246 242 244
188 206 222 234 251 265 276 161 181 234 290 10 254 262 256 253 275 302 298 292 287 281 270 261 257 257 259 258 247 247 256 260 268 269 266 263 257 248 244 243 239 235 236 240
205 203 212 215 234 253 162 164 213 267 313 284 273 268 264 271 286 285 282 282 282 278 269 261 263 268 268 254 243 249 258 268 271 264 259 260 261 253 241 234 232 228 224 224
220 219 221 220 240 294 201 227 248 268 272 276 274 277 270 272 276 277 278 275 273 272 271 269 265 274 274 255 248 254 269 275 263 259 258 261 260 246 229 223 222 216 211 217
232 226 239 256 261 262 256 259 263 264 268 276 275 272 264 266 270 272 273 273 271 269 267 266 260 264 273 267 265 268 277 267 247 246 251 249 247 239 217 216 216 207 207 209
232 197 229 254 270 280 260 249 262 273 276 275 277 273 268 265 263 263 266 269 273 274 271 263 257 261 267 267 272 278 274 254 239 236 236 235 238 236 215 215 218 219 220 222
215 210 216 245 248 248 268 274 269 266 269 271 271 272 270 264 260 260 261 263 268 269 271 266 264 264 263 252 260 266 257 244 230 223 220 223 227 222 213 205 190 197 239 248